Lexington, NE

12:57 AM CST on November 18, 2019 (GMT -0600)
Kelly

Weather History for KLXN - June, 2019

Change the Weather History Date:

Friday, June 14, 2019

  Actual Average Record
Temperature  
Mean Temperature 68 °F -  
Max Temperature 81 °F 78 °F 99 °F (2018)
Min Temperature 55 °F 54 °F 44 °F (2002)
Cooling Degree Days 3    
Growing Degree Days 18 (Base 50)    
Moisture  
Dew Point 61 °F    
Average Humidity 77    
Maximum Humidity 97    
Minimum Humidity 53    
Precipitation  
Precipitation 0.13 in - - ()
Sea Level Pressure  
Sea Level Pressure 29.76 in    
Wind  
Wind Speed 8 mph (SSW)    
Max Wind Speed 17 mph    
Max Gust Speed 21 mph    
Visibility 10 miles    
Events Rain    
Averages and records for this station are not official NWS values.
T = Trace of Precipitation, MM = Missing Value Source: NWS Daily Summary

Daily Weather History Graph

Daily Weather History Graph

Search for Another Location

Airport or City:

Astronomy

Jun. 14, 2019 Rise Set
Actual Time 6:07 AM CDT 9:11 PM CDT
Civil Twilight 5:33 AM CDT 9:45 PM CDT
Nautical Twilight 4:51 AM CDT 10:27 PM CDT
Astronomical Twilight 4:00 AM CDT 11:18 PM CDT
Moon 6:34 PM CDT (6/14) 4:27 AM CDT (6/14)
Length of Visible Light 16h 11m
Length of Day
15h 04m
Waxing Gibbous, 92% of the Moon is Illuminated
Jun 14
Waxing Gibbous
Jun 17
Full
Jun 25
Last Quarter
Jul 2
New
Jul 9
First Quarter

Hourly Weather History & Observations

Time (CDT) Temp. Heat Index Dew Point Humidity Pressure Visibility Wind Dir Wind Speed Gust Speed Precip Events Conditions
12:15 AM 63.7 °F - 54.1 °F 71% 29.93 in 10.0 mi West 8.1 mph 19.6 mph N/A Rain Rain
12:35 AM 61.9 °F - 56.3 °F 82% 29.97 in 5.0 mi NW 10.4 mph 16.1 mph 0.04 in Rain Light Rain
12:55 AM 61.3 °F - 56.8 °F 85% 29.97 in 7.0 mi Calm Calm - 0.05 in Rain Light Rain
1:15 AM 60.1 °F - 58.1 °F 93% 29.94 in 10.0 mi SSE 9.2 mph - 0.01 in Rain Light Rain
1:35 AM 59.9 °F - 58.3 °F 94% 29.90 in 7.0 mi SSE 17.3 mph - 0.04 in Rain Rain
1:55 AM 59.5 °F - 58.5 °F 96% 29.86 in 7.0 mi SE 15.0 mph - 0.08 in Rain Light Rain
2:15 AM 59.2 °F - 57.2 °F 93% 29.85 in 10.0 mi SE 12.7 mph - N/A   Light Drizzle
2:35 AM 59.0 °F - 56.5 °F 91% 29.82 in 10.0 mi SE 16.1 mph 19.6 mph N/A   Scattered Clouds
2:55 AM 59.0 °F - 56.3 °F 91% 29.81 in 10.0 mi SE 12.7 mph 20.7 mph N/A   Scattered Clouds
3:15 AM 58.5 °F - 56.3 °F 93% 29.81 in 10.0 mi SSE 15.0 mph - N/A   Clear
3:35 AM 58.3 °F - 56.3 °F 93% 29.80 in 10.0 mi SSE 12.7 mph 18.4 mph N/A   Clear
3:55 AM 58.3 °F - 55.9 °F 92% 29.81 in 10.0 mi SSE 10.4 mph - N/A   Clear
4:15 AM 57.6 °F - 55.8 °F 94% 29.80 in 10.0 mi SSE 11.5 mph - N/A   Clear
4:35 AM 57.7 °F - 55.6 °F 92% 29.80 in 10.0 mi SSE 10.4 mph - N/A   Clear
4:55 AM 57.4 °F - 55.6 °F 94% 29.80 in 10.0 mi SSE 8.1 mph - N/A   Clear
5:15 AM 56.8 °F - 55.4 °F 95% 29.79 in 10.0 mi SSE 8.1 mph - N/A   Clear
5:35 AM 56.5 °F - 55.4 °F 96% 29.79 in 10.0 mi SSE 6.9 mph - N/A   Clear
5:55 AM 56.3 °F - 55.4 °F 97% 29.79 in 10.0 mi SSE 5.8 mph - N/A   Clear
6:15 AM 55.9 °F - 55.0 °F 97% 29.79 in 10.0 mi South 6.9 mph - N/A   Clear
6:35 AM 56.5 °F - 55.4 °F 96% 29.79 in 10.0 mi South 6.9 mph - N/A   Clear
6:55 AM 56.8 °F - 55.8 °F 96% 29.79 in 10.0 mi SSE 6.9 mph - N/A   Clear
7:15 AM 57.6 °F - 56.3 °F 96% 29.80 in 10.0 mi SSE 5.8 mph - N/A   Clear
7:35 AM 59.2 °F - 57.2 °F 93% 29.79 in 10.0 mi SSE 8.1 mph - N/A   Clear
7:55 AM 60.4 °F - 57.6 °F 90% 29.79 in 10.0 mi South 9.2 mph - N/A   Clear
8:15 AM 61.2 °F - 57.9 °F 89% 29.78 in 10.0 mi South 9.2 mph - N/A   Clear
8:35 AM 62.6 °F - 58.3 °F 86% 29.78 in 10.0 mi South 11.5 mph - N/A   Clear
8:55 AM 63.7 °F - 59.0 °F 85% 29.77 in 10.0 mi SSW 11.5 mph - N/A   Clear
9:15 AM 64.8 °F - 59.9 °F 84% 29.77 in 10.0 mi SSW 12.7 mph 16.1 mph N/A   Clear
9:35 AM 66.2 °F - 60.6 °F 82% 29.77 in 10.0 mi SSW 9.2 mph - N/A   Clear
9:55 AM 67.6 °F - 62.1 °F 82% 29.77 in 10.0 mi SSW 8.1 mph - N/A   Clear
10:15 AM 68.9 °F - 62.4 °F 80% 29.76 in 10.0 mi SSW 8.1 mph - N/A   Clear
10:35 AM 70.0 °F - 62.4 °F 77% 29.76 in 10.0 mi SW 6.9 mph - N/A   Clear
10:55 AM 71.6 °F - 63.0 °F 74% 29.75 in 10.0 mi Calm Calm - N/A   Clear
11:15 AM 73.4 °F - 64.6 °F 74% 29.75 in 10.0 mi South 3.5 mph - N/A   Clear
11:35 AM 73.9 °F - 64.4 °F 72% 29.75 in 10.0 mi SW 6.9 mph - N/A   Clear
11:55 AM 74.8 °F - 64.4 °F 70% 29.74 in 10.0 mi SW 11.5 mph - N/A   Clear
12:15 PM 75.9 °F - 64.9 °F 69% 29.74 in 10.0 mi SSW 9.2 mph - N/A   Clear
12:35 PM 76.3 °F - 64.9 °F 68% 29.74 in 10.0 mi West 10.4 mph - N/A   Clear
12:55 PM 75.6 °F - 63.7 °F 66% 29.73 in 10.0 mi WSW 6.9 mph 10.4 mph N/A   Clear
1:15 PM 75.9 °F - 64.4 °F 67% 29.73 in 10.0 mi SW 11.5 mph - N/A   Clear
1:35 PM 76.6 °F - 63.7 °F 64% 29.73 in 10.0 mi WSW 6.9 mph - N/A   Clear
1:55 PM 77.0 °F - 64.2 °F 65% 29.72 in 10.0 mi West 10.4 mph - N/A   Clear
2:15 PM 77.5 °F - 64.4 °F 64% 29.72 in 10.0 mi WNW 10.4 mph - N/A   Clear
2:35 PM 79.0 °F - 64.6 °F 61% 29.71 in 10.0 mi WSW 8.1 mph - N/A   Clear
2:55 PM 78.6 °F - 62.6 °F 58% 29.71 in 10.0 mi West 6.9 mph - N/A   Clear
3:15 PM 77.9 °F - 64.6 °F 63% 29.71 in 10.0 mi West 6.9 mph - N/A   Clear
3:35 PM 78.8 °F - 65.5 °F 64% 29.71 in 10.0 mi West 6.9 mph - N/A   Clear
3:55 PM 78.3 °F - 64.0 °F 61% 29.70 in 10.0 mi West 8.1 mph - N/A   Clear
4:15 PM 78.1 °F - 64.4 °F 63% 29.71 in 10.0 mi West 6.9 mph - N/A   Clear
4:35 PM 78.3 °F - 63.5 °F 60% 29.71 in 10.0 mi WSW 5.8 mph - N/A   Clear
4:55 PM 79.2 °F - 64.8 °F 61% 29.70 in 10.0 mi WSW 5.8 mph - N/A   Clear
5:15 PM 80.2 °F 82.1 °F 65.3 °F 60% 29.70 in 10.0 mi WSW 3.5 mph - N/A   Clear
5:35 PM 80.2 °F 82.1 °F 65.1 °F 60% 29.70 in 10.0 mi WSW 5.8 mph - N/A   Clear
5:55 PM 80.1 °F 81.8 °F 64.6 °F 59% 29.70 in 10.0 mi WSW 4.6 mph - N/A   Clear
6:15 PM 80.4 °F 81.7 °F 63.0 °F 55% 29.70 in 10.0 mi WSW 4.6 mph - N/A   Clear
6:35 PM 79.9 °F - 64.0 °F 58% 29.70 in 10.0 mi WNW 4.6 mph - N/A   Clear
6:55 PM 79.7 °F - 65.1 °F 61% 29.70 in 10.0 mi Calm Calm - N/A   Clear
7:15 PM 81.5 °F 82.9 °F 64.0 °F 55% 29.69 in 10.0 mi Calm Calm - N/A   Clear
7:35 PM 80.6 °F 81.7 °F 62.2 °F 53% 29.68 in 10.0 mi WNW 3.5 mph - N/A   Clear
7:55 PM 79.2 °F - 65.8 °F 64% 29.67 in 10.0 mi NE 3.5 mph - N/A   Clear
8:15 PM 77.2 °F - 67.6 °F 72% 29.67 in 10.0 mi East 3.5 mph - N/A   Clear
8:35 PM 76.8 °F - 65.7 °F 68% 29.68 in 10.0 mi East 3.5 mph - N/A   Clear
8:55 PM 75.4 °F - 65.3 °F 71% 29.70 in 10.0 mi Calm Calm - N/A   Clear
9:15 PM 76.1 °F - 63.5 °F 65% 29.71 in 10.0 mi Calm Calm - N/A   Clear
9:35 PM 70.0 °F - 63.5 °F 80% 29.71 in 10.0 mi Calm Calm - N/A   Clear